This is the latest recevied weather packets stored in our database for station/object K6CEG. If no packets are shown the sender has not sent any weather packets the latest 10 day(s).
| Time | Temp. | Humidity | Pressure | Rain* | Wind** | Luminosity | Snow |
|---|---|---|---|---|---|---|---|
| 1788573841 | 25.56° C | 52% | 1013.9 hPa | 0 mm | - | 5 W/m² | - |
| 1788573540 | 25.56° C | 52% | 1013.9 hPa | 0 mm | - | 7 W/m² | - |
| 1788573239 | 26.11° C | 51% | 1014 hPa | 0 mm | - | 11 W/m² | - |
| 1788572939 | 26.11° C | 50% | 1014.1 hPa | 0 mm | - | 14 W/m² | - |
| 1788572635 | 26.11° C | 50% | 1013.9 hPa | 0 mm | - | 16 W/m² | - |
| 1788572335 | 26.11° C | 50% | 1014.1 hPa | 0 mm | - | 14 W/m² | - |
| 1788572032 | 26.11° C | 49% | 1014 hPa | 0 mm | - | 15 W/m² | - |
| 1788571732 | 26.67° C | 48% | 1014.1 hPa | 0 mm | - | 17 W/m² | - |
| 1788571427 | 26.67° C | 46% | 1014.1 hPa | 0 mm | - | 18 W/m² | - |
| 1788571124 | 26.67° C | 47% | 1014.1 hPa | 0 mm | - | 19 W/m² | - |
| 1788570819 | 26.67° C | 46% | 1013.9 hPa | 0 mm | - | 28 W/m² | - |
| 1788570515 | 26.67° C | 45% | 1014.1 hPa | 0 mm | - | 57 W/m² | - |
| 1788570209 | 27.22° C | 45% | 1014.2 hPa | 0 mm | - | 42 W/m² | - |
| 1788569906 | 26.67° C | 44% | 1014 hPa | 0 mm | - | 22 W/m² | - |
| 1788569602 | 27.22° C | 43% | 1014.1 hPa | 0 mm | - | 23 W/m² | - |
| 1788569296 | 27.22° C | 42% | 1014.1 hPa | 0 mm | - | 23 W/m² | - |
| 1788568991 | 27.78° C | 42% | 1014.1 hPa | 0 mm | - | 26 W/m² | - |
| 1788568686 | 27.78° C | 41% | 1014.1 hPa | 0 mm | - | 24 W/m² | - |
| 1788568382 | 27.78° C | 42% | 1014.1 hPa | 0 mm | - | 25 W/m² | - |
| 1788568078 | 27.78° C | 40% | 1014.2 hPa | 0 mm | - | 26 W/m² | - |
| 1788567777 | 28.33° C | 39% | 1014.3 hPa | 0 mm | - | 26 W/m² | - |
| 1788567472 | 27.78° C | 39% | 1014.1 hPa | 0 mm | - | 46 W/m² | - |
| 1788567171 | 28.33° C | 39% | 1014.1 hPa | 0 mm | - | 215 W/m² | - |
| 1788566867 | 28.89° C | 40% | 1014.1 hPa | 0 mm | - | 238 W/m² | - |
| 1788566563 | 28.89° C | 40% | 1014.2 hPa | 0 mm | - | 288 W/m² | - |
* Rain latest hour (hover to see other rain measurements)
** Current wind speed in m/s (hover to see current wind gust speed)